New Bern, NC

6:59 AM EDT on May 26, 2017 (GMT -0400)
Craven County Regional

Weather History for KEWN - May, 2013

Change the Weather History Date:

Saturday, May 11, 2013

  Actual Average Record
Temperature  
Mean Temperature 78 °F 68 °F  
Max Temperature 86 °F 79 °F 91 °F (1963)
Min Temperature 70 °F 57 °F 37 °F (1966)
Degree Days  
Heating Degree Days 0 1  
Month to date heating degree days 9 20  
Since 1 July heating degree days 2570 2687  
Cooling Degree Days 13 4  
Month to date cooling degree days 34 41  
Year to date cooling degree days 107 111  
Growing Degree Days 27 (Base 50)    
Moisture  
Dew Point 66 °F    
Average Humidity 70    
Maximum Humidity 84    
Minimum Humidity 55    
Precipitation  
Precipitation 0.50 in 0.13 in 0.99 in (2015)
Month to date precipitation 1.05 1.36  
Year to date precipitation 10.62 16.60  
Snow  
Snow 0.00 in - - ()
Month to date snowfall 0.0  
Since 1 July snowfall T  
Snow Depth 0.00 in    
Sea Level Pressure  
Sea Level Pressure 29.93 in    
Wind  
Wind Speed 9 mph (SSW)    
Max Wind Speed 29 mph    
Max Gust Speed 37 mph    
Visibility 8 miles    
Events Rain , Thunderstorm    
T = Trace of Precipitation, MM = Missing Value Source: NWS Daily Summary

Daily Weather History Graph

Daily Weather History Graph

Search for Another Location

Airport or City:

Trip Planner

Search our weather history database for the weather conditions in past years. The results will help you decide how hot, cold, wet, or windy it might be!

Date:

Astronomy

May. 11, 2013 Rise Set
Actual Time 6:07 AM EDT 8:02 PM EDT
Civil Twilight 5:39 AM EDT 8:29 PM EDT
Nautical Twilight 5:05 AM EDT 9:03 PM EDT
Astronomical Twilight 4:29 AM EDT 9:39 PM EDT
Moon 7:14 AM EDT (5/11) 9:39 PM EDT (5/11)
Length of Visible Light 14h 50m
Length of Day
13h 54m
Waxing Crescent, 3% of the Moon is Illuminated
May 11
Waxing Crescent
May 18
First Quarter
May 25
Full
May 31
Last Quarter
Jun 8
New

Hourly Weather History & Observations

Time (EDT) Temp. Heat Index Dew Point Humidity Pressure Visibility Wind Dir Wind Speed Gust Speed Precip Events Conditions
12:54 AM 71.1 °F - 64.9 °F 81% 30.03 in 10.0 mi South 9.2 mph - N/A   Clear
1:54 AM 71.1 °F - 64.9 °F 81% 30.02 in 10.0 mi SSW 9.2 mph - N/A   Clear
2:54 AM 71.1 °F - 66.0 °F 84% 30.00 in 10.0 mi SSW 9.2 mph - N/A   Clear
3:54 AM 71.1 °F - 66.0 °F 84% 30.01 in 10.0 mi SSW 6.9 mph - N/A   Clear
4:54 AM 71.1 °F - 66.9 °F 87% 29.99 in 10.0 mi South 6.9 mph - N/A   Clear
5:54 AM 71.1 °F - 66.0 °F 84% 29.99 in 10.0 mi South 5.8 mph - N/A   Clear
6:54 AM 71.1 °F - 66.0 °F 84% 30.01 in 10.0 mi SSW 8.1 mph - N/A   Partly Cloudy
7:54 AM 73.0 °F - 66.9 °F 81% 30.00 in 10.0 mi SSW 8.1 mph - N/A   Clear
8:54 AM 75.9 °F - 66.9 °F 74% 29.99 in 10.0 mi SSW 9.2 mph - N/A   Clear
9:54 AM 78.1 °F - 66.0 °F 66% 29.97 in 10.0 mi SW 15.0 mph 23.0 mph N/A   Scattered Clouds
10:10 AM 78.8 °F - 66.2 °F 65% 29.97 in 10.0 mi SW 12.7 mph 19.6 mph N/A   Mostly Cloudy
10:54 AM 82.0 °F 84.9 °F 68.0 °F 62% 29.96 in 10.0 mi SSW 11.5 mph - N/A   Mostly Cloudy
11:13 AM 82.4 °F 85.4 °F 68.0 °F 62% 29.96 in 10.0 mi SW 10.4 mph 19.6 mph N/A   Scattered Clouds
11:54 AM 84.9 °F 87.6 °F 66.9 °F 55% 29.93 in 10.0 mi SSW 11.5 mph 23.0 mph N/A   Scattered Clouds
12:35 PM 78.8 °F - 66.2 °F 65% 29.95 in 0.8 mi SW 25.3 mph 36.8 mph 0.18 in   Haze
12:42 PM 73.4 °F - 66.2 °F 78% 29.94 in 0.2 mi SW 8.1 mph 36.8 mph 0.34 in Rain Heavy Rain
12:48 PM 73.4 °F - 68.0 °F 83% 29.94 in 2.5 mi SW 9.2 mph - 0.34 in Rain Light Rain
12:54 PM 75.9 °F - 70.0 °F 82% 29.93 in 10.0 mi SW 9.2 mph - 0.34 in Rain Light Rain
1:54 PM 80.1 °F 82.3 °F 66.9 °F 64% 29.90 in 10.0 mi SSW 15.0 mph 23.0 mph 0.00 in Thunderstorm Thunderstorm
2:25 PM 71.6 °F - 66.2 °F 83% 29.91 in 1.8 mi West 4.6 mph - 0.08 in Rain , Thunderstorm Heavy Thunderstorms and Rain
2:35 PM 73.4 °F - 68.0 °F 83% 29.90 in 2.0 mi Variable 5.8 mph - 0.12 in Rain Rain
2:44 PM 73.4 °F - 69.8 °F 88% 29.89 in 4.0 mi SW 5.8 mph - 0.13 in Rain , Thunderstorm Light Rain
2:54 PM 73.0 °F - 68.0 °F 84% 29.89 in 5.0 mi SW 11.5 mph 16.1 mph 0.14 in Rain , Thunderstorm Rain
3:20 PM 77.0 °F - 68.0 °F 74% 29.87 in 10.0 mi South 6.9 mph - 0.02 in   Partly Cloudy
3:54 PM 79.0 °F - 70.0 °F 74% 29.85 in 10.0 mi South 6.9 mph - 0.02 in   Clear
4:54 PM 81.0 °F 83.3 °F 66.9 °F 62% 29.85 in 10.0 mi South 9.2 mph - N/A   Clear
5:54 PM 79.0 °F - 63.0 °F 58% 29.85 in 10.0 mi South 10.4 mph - N/A   Clear
6:54 PM 78.1 °F - 62.1 °F 58% 29.85 in 10.0 mi South 9.2 mph - N/A   Clear
7:54 PM 73.9 °F - 63.0 °F 68% 29.86 in 10.0 mi South 6.9 mph - N/A   Clear
8:54 PM 72.0 °F - 63.0 °F 73% 29.86 in 10.0 mi SSW 8.1 mph - N/A   Clear
10:54 PM 70.0 °F - 63.0 °F 78% 29.87 in 10.0 mi SSW 8.1 mph - N/A   Clear
11:54 PM 70.0 °F - 63.0 °F 78% 29.86 in 10.0 mi SSW 8.1 mph - N/A   Clear